Location: Nelson
(41.2830°S, 173.2830°E)
Time: 12:26:46
(UTC+13:00)

Radarsat Rocket - Pass Details

Date: 04 October 2021
Orbit: 933 x 1492 km, 100.6° (Epoch: 27 October)

Event Time Altitude Azimuth Distance (km) Brightness Sun altitude
Rises 20:28:08 0° 167° (SSE) 4,155 7.3 -10.5°
Reaches altitude 10° 20:30:56 10° 169° (SSE) 3,105 6.7 -11.0°
Maximum altitude 20:37:50 68° 249° (WSW) 1,147 4.6 -12.2°
Drops below altitude 10° 20:43:55 10° 331° (NNW) 2,749 6.5 -13.3°
Sets 20:46:16 0° 333° (NNW) 3,649 7.1 -13.7°
